| time (UTC) | temp C | wind direction | speed KPH | gust KPH | rain 1hr cm | rain 24hr cm | rain mn cm | humidity % | barometer mb |
| 20260508210030 | 21 | 152 | 4.8 | 11.3 | 0.00 | 0.00 | 0.00 | 34 | 1013.7 |
| 20260508205530 | 21 | 82 | 1.6 | 4.8 | 0.00 | 0.00 | 0.00 | 35 | 1013.7 |
| 20260508205031 | 21 | 342 | 0.0 | 8.0 | 0.00 | 0.00 | 0.00 | 36 | 1013.9 |
| 20260508204535 | 21 | 347 | 1.6 | 8.0 | 0.00 | 0.00 | 0.00 | 36 | 1014.0 |
| 20260508204030 | 21 | 291 | 3.2 | 8.0 | 0.00 | 0.00 | 0.00 | 35 | 1014.0 |
| 20260508203529 | 22 | 225 | 1.6 | 6.4 | 0.00 | 0.00 | 0.00 | 33 | 1013.9 |
| 20260508203031 | 21 | 86 | 0.0 | 9.7 | 0.00 | 0.00 | 0.00 | 34 | 1013.9 |
| 20260508202529 | 21 | 256 | 1.6 | 11.3 | 0.00 | 0.00 | 0.00 | 34 | 1014.0 |
| 20260508202028 | 21 | 241 | 3.2 | 11.3 | 0.00 | 0.00 | 0.00 | 35 | 1014.1 |
| 20260508201528 | 21 | 162 | 1.6 | 9.7 | 0.00 | 0.00 | 0.00 | 34 | 1014.2 |
| 20260508201026 | 22 | 176 | 3.2 | 9.7 | 0.00 | 0.00 | 0.00 | 32 | 1014.2 |
| 20260508200527 | 22 | 58 | 3.2 | 8.0 | 0.00 | 0.00 | 0.00 | 32 | 1014.3 |
| 20260508200031 | 22 | 47 | 0.0 | 16.1 | 0.00 | 0.00 | 0.00 | 34 | 1014.2 |
| 20260508195526 | 21 | 149 | 3.2 | 16.1 | 0.00 | 0.00 | 0.00 | 34 | 1014.4 |
| 20260508195025 | 22 | 256 | 3.2 | 6.4 | 0.00 | 0.00 | 0.00 | 31 | 1014.5 |
| 20260508194545 | 22 | 13 | 3.2 | 4.8 | 0.00 | 0.00 | 0.00 | 30 | 1014.5 |
| 20260508194024 | 22 | 314 | 0.0 | 8.0 | 0.00 | 0.00 | 0.00 | 32 | 1014.8 |
| 20260508193524 | 21 | 249 | 0.0 | 8.0 | 0.00 | 0.00 | 0.00 | 34 | 1014.8 |
| 20260508193024 | 21 | 203 | 1.6 | 8.0 | 0.00 | 0.00 | 0.00 | 33 | 1014.9 |
| 20260508192523 | 21 | 20 | 3.2 | 8.0 | 0.00 | 0.00 | 0.00 | 33 | 1014.8 |
| 20260508192023 | 21 | 321 | 1.6 | 14.5 | 0.00 | 0.00 | 0.00 | 32 | 1014.9 |
| 20260508191522 | 21 | 315 | 3.2 | 9.7 | 0.00 | 0.00 | 0.00 | 32 | 1015.0 |
| 20260508191022 | 21 | 346 | 1.6 | 9.7 | 0.00 | 0.00 | 0.00 | 31 | 1015.1 |
| 20260508190521 | 21 | 75 | 3.2 | 14.5 | 0.00 | 0.00 | 0.00 | 29 | 1015.2 |
| 20260508190021 | 21 | 242 | 3.2 | 14.5 | 0.00 | 0.00 | 0.00 | 29 | 1015.4 |
| 20260508185520 | 21 | 53 | 3.2 | 11.3 | 0.00 | 0.00 | 0.00 | 30 | 1015.2 |
| 20260508185019 | 22 | 288 | 1.6 | 11.3 | 0.00 | 0.00 | 0.00 | 30 | 1015.4 |
| 20260508184524 | 22 | 266 | 1.6 | 11.3 | 0.00 | 0.00 | 0.00 | 30 | 1015.4 |
| 20260508184020 | 22 | 243 | 3.2 | 12.9 | 0.00 | 0.00 | 0.00 | 29 | 1015.4 |
| 20260508183521 | 22 | 76 | 3.2 | 12.9 | 0.00 | 0.00 | 0.00 | 29 | 1015.5 |
| 20260508183022 | 22 | 117 | 3.2 | 14.5 | 0.00 | 0.00 | 0.00 | 28 | 1015.6 |
| 20260508182522 | 22 | 23 | 4.8 | 14.5 | 0.00 | 0.00 | 0.00 | 28 | 1015.5 |
| 20260508182022 | 21 | 32 | 3.2 | 8.0 | 0.00 | 0.00 | 0.00 | 29 | 1015.5 |
| 20260508181526 | 21 | 22 | 1.6 | 9.7 | 0.00 | 0.00 | 0.00 | 30 | 1015.5 |
| 20260508181020 | 21 | 143 | 1.6 | 9.7 | 0.00 | 0.00 | 0.00 | 29 | 1015.7 |
| 20260508180516 | 21 | 130 | 1.6 | 8.0 | 0.00 | 0.00 | 0.00 | 28 | 1015.8 |
| 20260508180017 | 21 | 93 | 0.0 | 9.7 | 0.00 | 0.00 | 0.00 | 33 | 1016.0 |
| 20260508175516 | 21 | 293 | 3.2 | 9.7 | 0.00 | 0.00 | 0.00 | 28 | 1016.2 |
| 20260508175017 | 21 | 240 | 3.2 | 14.5 | 0.00 | 0.00 | 0.00 | 27 | 1016.1 |
| 20260508174511 | 21 | 233 | 3.2 | 14.5 | 0.00 | 0.00 | 0.00 | 27 | 1016.1 |
| 20260508174009 | 22 | 13 | 0.0 | 8.0 | 0.00 | 0.00 | 0.00 | 29 | 1016.1 |
| 20260508173509 | 21 | 127 | 1.6 | 8.0 | 0.00 | 0.00 | 0.00 | 29 | 1016.2 |
| 20260508173013 | 21 | 15 | 3.2 | 9.7 | 0.00 | 0.00 | 0.00 | 29 | 1016.2 |
| 20260508172509 | 21 | 64 | 3.2 | 14.5 | 0.00 | 0.00 | 0.00 | 26 | 1016.4 |
| 20260508172006 | 21 | 25 | 3.2 | 14.5 | 0.00 | 0.00 | 0.00 | 28 | 1016.5 |
| 20260508171511 | 21 | 195 | 3.2 | 11.3 | 0.00 | 0.00 | 0.00 | 32 | 1016.4 |
| 20260508171005 | 20 | 202 | 1.6 | 9.7 | 0.00 | 0.00 | 0.00 | 30 | 1016.5 |
| 20260508170505 | 20 | 164 | 3.2 | 9.7 | 0.00 | 0.00 | 0.00 | 32 | 1016.6 |
| 20260508170004 | 21 | 236 | 3.2 | 9.7 | 0.00 | 0.00 | 0.00 | 29 | 1016.8 |
| 20260508165504 | 21 | 254 | 3.2 | 14.5 | 0.00 | 0.00 | 0.00 | 32 | 1016.7 |
| 20260508165001 | 21 | 86 | 1.6 | 9.7 | 0.00 | 0.00 | 0.00 | 33 | 1017.0 |
| 20260508164505 | 21 | 25 | 1.6 | 9.7 | 0.00 | 0.00 | 0.00 | 32 | 1017.0 |
| 20260508164001 | 20 | 148 | 3.2 | 8.0 | 0.00 | 0.00 | 0.00 | 32 | 1017.0 |
| 20260508163502 | 20 | 68 | 1.6 | 8.0 | 0.00 | 0.00 | 0.00 | 32 | 1017.1 |
| 20260508163106 | 20 | 166 | 1.6 | 8.0 | 0.00 | 0.00 | 0.00 | 31 | 1017.1 |
| 20260508162559 | 20 | 120 | 1.6 | 8.0 | 0.00 | 0.00 | 0.00 | 31 | 1017.2 |
| 20260508162058 | 20 | 94 | 3.2 | 8.0 | 0.00 | 0.00 | 0.00 | 31 | 1017.2 |
| 20260508161606 | 20 | 358 | 0.0 | 9.7 | 0.00 | 0.00 | 0.00 | 30 | 1017.3 |
| 20260508161056 | 19 | 233 | 3.2 | 12.9 | 0.00 | 0.00 | 0.00 | 33 | 1017.5 |
| 20260508160555 | 19 | 100 | 3.2 | 12.9 | 0.00 | 0.00 | 0.00 | 34 | 1017.4 |
| 20260508160056 | 19 | 26 | 6.4 | 14.5 | 0.00 | 0.00 | 0.00 | 31 | 1017.5 |
| 20260508155554 | 20 | 14 | 6.4 | 14.5 | 0.00 | 0.00 | 0.00 | 28 | 1017.6 |
| 20260508155053 | 19 | 215 | 3.2 | 11.3 | 0.00 | 0.00 | 0.00 | 34 | 1017.8 |
| 20260508154049 | 18 | 134 | 0.0 | 11.3 | 0.00 | 0.00 | 0.00 | 34 | 1018.0 |
| 20260508153548 | 17 | 255 | 1.6 | 11.3 | 0.00 | 0.00 | 0.00 | 37 | 1017.9 |
| 20260508153052 | 17 | 77 | 1.6 | 11.3 | 0.00 | 0.00 | 0.00 | 37 | 1017.9 |
| 20260508152548 | 17 | 354 | 3.2 | 9.7 | 0.00 | 0.00 | 0.00 | 38 | 1018.1 |
| 20260508152045 | 17 | 69 | 3.2 | 9.7 | 0.00 | 0.00 | 0.00 | 38 | 1018.0 |
| 20260508151545 | 17 | 4 | 4.8 | 9.7 | 0.00 | 0.00 | 0.00 | 38 | 1018.1 |
| 20260508151042 | 17 | 42 | 1.6 | 9.7 | 0.00 | 0.00 | 0.00 | 41 | 1018.0 |
| 20260508150542 | 16 | 135 | 4.8 | 12.9 | 0.00 | 0.00 | 0.00 | 43 | 1017.9 |
| 20260508150041 | 16 | 326 | 1.6 | 14.5 | 0.00 | 0.00 | 0.00 | 42 | 1018.1 |
| 20260508145541 | 16 | 316 | 6.4 | 14.5 | 0.00 | 0.00 | 0.00 | 43 | 1018.2 |
| 20260508145039 | 16 | 8 | 4.8 | 12.9 | 0.00 | 0.00 | 0.00 | 44 | 1018.3 |
| 20260508144039 | 16 | 236 | 3.2 | 11.3 | 0.00 | 0.00 | 0.00 | 45 | 1018.3 |
| 20260508143538 | 16 | 42 | 1.6 | 11.3 | 0.00 | 0.00 | 0.00 | 46 | 1018.4 |
| 20260508143044 | 16 | 8 | 4.8 | 11.3 | 0.00 | 0.00 | 0.00 | 47 | 1018.4 |
| 20260508142535 | 15 | 354 | 3.2 | 9.7 | 0.00 | 0.00 | 0.00 | 48 | 1018.4 |
| 20260508142034 | 15 | 72 | 3.2 | 8.0 | 0.00 | 0.00 | 0.00 | 46 | 1018.4 |
| 20260508141532 | 15 | 65 | 0.0 | 12.9 | 0.00 | 0.00 | 0.00 | 49 | 1018.4 |
| 20260508141033 | 15 | 347 | 3.2 | 12.9 | 0.00 | 0.00 | 0.00 | 48 | 1018.4 |
| 20260508140533 | 15 | 23 | 0.0 | 9.7 | 0.00 | 0.00 | 0.00 | 50 | 1018.5 |
| 20260508140034 | 14 | 245 | 3.2 | 9.7 | 0.00 | 0.00 | 0.00 | 49 | 1018.5 |
| 20260508135530 | 13 | 44 | 0.0 | 4.8 | 0.00 | 0.00 | 0.00 | 54 | 1018.5 |
| 20260508135026 | 13 | 14 | 3.2 | 8.0 | 0.00 | 0.00 | 0.00 | 57 | 1018.5 |
| 20260508134021 | 13 | 36 | 0.0 | 4.8 | 0.00 | 0.00 | 0.00 | 57 | 1018.5 |
| 20260508133519 | 13 | 79 | 0.0 | 4.8 | 0.00 | 0.00 | 0.00 | 58 | 1018.5 |
| 20260508133017 | 12 | 30 | 0.0 | 3.2 | 0.00 | 0.00 | 0.00 | 59 | 1018.6 |
| 20260508132515 | 12 | 25 | 0.0 | 3.2 | 0.00 | 0.00 | 0.00 | 60 | 1018.6 |
| 20260508132016 | 11 | 111 | 0.0 | 4.8 | 0.00 | 0.00 | 0.00 | 63 | 1018.6 |
| 20260508131512 | 11 | 351 | 1.6 | 4.8 | 0.00 | 0.00 | 0.00 | 64 | 1018.5 |
| 20260508131010 | 11 | 19 | 0.0 | 4.8 | 0.00 | 0.00 | 0.00 | 66 | 1018.5 |
| 20260508130509 | 11 | 20 | 1.6 | 4.8 | 0.00 | 0.00 | 0.00 | 68 | 1018.4 |
| 20260508130006 | 10 | 35 | 0.0 | 4.8 | 0.00 | 0.00 | 0.00 | 70 | 1018.4 |
| 20260508125504 | 10 | 75 | 0.0 | 3.2 | 0.00 | 0.00 | 0.00 | 72 | 1018.4 |
| 20260508125001 | 10 | 334 | 0.0 | 3.2 | 0.00 | 0.00 | 0.00 | 74 | 1018.3 |
| 20260508124100 | 9 | 356 | 0.0 | 0.0 | 0.00 | 0.00 | 0.00 | 78 | 1018.2 |
| 20260508123600 | 8 | 355 | 0.0 | 0.0 | 0.00 | 0.00 | 0.00 | 78 | 1018.2 |
| 20260508123107 | 8 | 288 | 0.0 | 0.0 | 0.00 | 0.00 | 0.00 | 78 | 1018.1 |
| 20260508122558 | 8 | 304 | 0.0 | 0.0 | 0.00 | 0.00 | 0.00 | 78 | 1018.2 |
| 20260508122059 | 7 | 349 | 0.0 | 1.6 | 0.00 | 0.00 | 0.00 | 78 | 1018.1 |
| 20260508121557 | 7 | 349 | 0.0 | 1.6 | 0.00 | 0.00 | 0.00 | 78 | 1018.1 |
| 20260508121055 | 7 | 347 | 0.0 | 3.2 | 0.00 | 0.00 | 0.00 | 78 | 1018.1 |
| 20260508120554 | 7 | 325 | 0.0 | 3.2 | 0.00 | 0.00 | 0.00 | 78 | 1017.9 |
| 20260508120054 | 6 | 353 | 1.6 | 3.2 | 0.00 | 0.36 | 0.00 | 78 | 1018.0 |
| 20260508115553 | 6 | 329 | 0.0 | 1.6 | 0.00 | 0.36 | 0.00 | 78 | 1018.0 |
| 20260508115052 | 6 | 327 | 0.0 | 1.6 | 0.00 | 0.36 | 0.00 | 78 | 1017.9 |
| 20260508114050 | 5 | 327 | 0.0 | 1.6 | 0.00 | 0.36 | 0.00 | 78 | 1017.6 |
| 20260508113549 | 5 | 326 | 0.0 | 0.0 | 0.00 | 0.36 | 0.00 | 78 | 1017.6 |
| 20260508113051 | 5 | 326 | 0.0 | 0.0 | 0.00 | 0.36 | 0.00 | 78 | 1017.5 |
| 20260508112546 | 5 | 327 | 0.0 | 0.0 | 0.00 | 0.36 | 0.00 | 78 | 1017.4 |
| 20260508112048 | 5 | 326 | 0.0 | 0.0 | 0.00 | 0.36 | 0.00 | 78 | 1017.3 |
| 20260508111547 | 5 | 326 | 0.0 | 0.0 | 0.00 | 0.36 | 0.00 | 78 | 1017.2 |
| 20260508111044 | 5 | 326 | 0.0 | 0.0 | 0.00 | 0.36 | 0.00 | 78 | 1017.0 |
| 20260508110542 | 5 | 326 | 0.0 | 0.0 | 0.00 | 0.36 | 0.00 | 78 | 1016.9 |
| 20260508110047 | 5 | 326 | 0.0 | 0.0 | 0.00 | 0.41 | 0.00 | 78 | 1016.8 |
| 20260508105543 | 5 | 326 | 0.0 | 1.6 | 0.00 | 0.41 | 0.00 | 78 | 1016.9 |
| 20260508105039 | 5 | 326 | 0.0 | 1.6 | 0.00 | 0.41 | 0.00 | 78 | 1016.9 |
| 20260508104040 | 5 | 321 | 0.0 | 0.0 | 0.00 | 0.41 | 0.00 | 78 | 1016.5 |
| 20260508103541 | 5 | 321 | 0.0 | 0.0 | 0.00 | 0.41 | 0.00 | 78 | 1016.4 |
| 20260508103038 | 5 | 284 | 0.0 | 1.6 | 0.00 | 0.41 | 0.00 | 77 | 1016.3 |
| 20260508102536 | 5 | 314 | 0.0 | 0.0 | 0.00 | 0.41 | 0.00 | 77 | 1016.2 |
| 20260508102034 | 5 | 320 | 0.0 | 0.0 | 0.00 | 0.41 | 0.00 | 77 | 1016.1 |
| 20260508101534 | 5 | 320 | 0.0 | 1.6 | 0.00 | 0.41 | 0.00 | 77 | 1016.0 |
| 20260508101035 | 5 | 320 | 0.0 | 1.6 | 0.00 | 0.41 | 0.00 | 78 | 1016.0 |
| 20260508100532 | 5 | 286 | 0.0 | 0.0 | 0.00 | 0.41 | 0.00 | 77 | 1015.8 |
| 20260508100031 | 5 | 285 | 0.0 | 0.0 | 0.00 | 0.41 | 0.00 | 77 | 1015.8 |
| 20260508095529 | 5 | 285 | 0.0 | 0.0 | 0.00 | 0.41 | 0.00 | 77 | 1015.8 |
| 20260508095028 | 5 | 285 | 0.0 | 0.0 | 0.00 | 0.41 | 0.00 | 77 | 1015.8 |
| 20260508094026 | 5 | 286 | 0.0 | 1.6 | 0.00 | 0.41 | 0.00 | 77 | 1015.7 |
| 20260508093524 | 5 | 285 | 0.0 | 1.6 | 0.00 | 0.41 | 0.00 | 77 | 1015.6 |
| 20260508093026 | 5 | 42 | 0.0 | 1.6 | 0.00 | 0.41 | 0.00 | 77 | 1015.6 |
| 20260508092522 | 5 | 311 | 0.0 | 1.6 | 0.00 | 0.41 | 0.00 | 77 | 1015.7 |
| 20260508092023 | 5 | 324 | 0.0 | 3.2 | 0.00 | 0.41 | 0.00 | 77 | 1015.6 |
| 20260508091526 | 6 | 328 | 0.0 | 4.8 | 0.00 | 0.41 | 0.00 | 77 | 1015.6 |
| 20260508091022 | 6 | 11 | 1.6 | 4.8 | 0.00 | 0.41 | 0.00 | 77 | 1015.7 |
| 20260508090519 | 6 | 359 | 0.0 | 1.6 | 0.00 | 0.41 | 0.00 | 76 | 1015.7 |
| 20260508090022 | 5 | 235 | 0.0 | 0.0 | 0.00 | 0.41 | 0.00 | 76 | 1015.5 |
| 20260508085517 | 6 | 236 | 0.0 | 1.6 | 0.00 | 0.41 | 0.00 | 76 | 1015.5 |
| 20260508085016 | 6 | 322 | 0.0 | 1.6 | 0.00 | 0.41 | 0.00 | 76 | 1015.4 |
| 20260508084016 | 6 | 332 | 0.0 | 1.6 | 0.00 | 0.41 | 0.00 | 76 | 1015.3 |
| 20260508083513 | 6 | 278 | 0.0 | 1.6 | 0.00 | 0.41 | 0.00 | 75 | 1015.2 |
| 20260508083012 | 6 | 349 | 0.0 | 1.6 | 0.00 | 0.41 | 0.00 | 75 | 1015.2 |
| 20260508082512 | 6 | 349 | 0.0 | 1.6 | 0.00 | 0.41 | 0.00 | 75 | 1015.2 |
| 20260508082010 | 6 | 328 | 0.0 | 0.0 | 0.00 | 0.41 | 0.00 | 75 | 1015.3 |
| 20260508081510 | 6 | 349 | 0.0 | 1.6 | 0.00 | 0.41 | 0.00 | 74 | 1015.1 |
| 20260508081009 | 6 | 356 | 0.0 | 1.6 | 0.00 | 0.41 | 0.00 | 74 | 1015.0 |
| 20260508080515 | 6 | 333 | 0.0 | 1.6 | 0.00 | 0.41 | 0.00 | 73 | 1015.0 |
| 20260508080006 | 6 | 333 | 0.0 | 1.6 | 0.00 | 0.41 | 0.00 | 73 | 1015.0 |
| 20260508075506 | 6 | 248 | 0.0 | 1.6 | 0.00 | 0.41 | 0.00 | 73 | 1014.9 |
| 20260508075005 | 6 | 342 | 0.0 | 1.6 | 0.00 | 0.41 | 0.00 | 73 | 1014.9 |
| 20260508074004 | 6 | 56 | 0.0 | 1.6 | 0.00 | 0.41 | 0.00 | 72 | 1014.8 |
| 20260508073502 | 6 | 243 | 0.0 | 1.6 | 0.00 | 0.41 | 0.00 | 72 | 1014.7 |
| 20260508073000 | 6 | 293 | 0.0 | 1.6 | 0.00 | 0.41 | 0.00 | 71 | 1014.5 |
| 20260508072600 | 6 | 6 | 0.0 | 1.6 | 0.00 | 0.41 | 0.00 | 71 | 1014.7 |
| 20260508072059 | 6 | 345 | 0.0 | 0.0 | 0.00 | 0.41 | 0.00 | 70 | 1014.6 |
| 20260508071559 | 6 | 328 | 0.0 | 0.0 | 0.00 | 0.41 | 0.00 | 69 | 1014.6 |
| 20260508071057 | 6 | 344 | 0.0 | 0.0 | 0.00 | 0.41 | 0.00 | 69 | 1014.5 |
| 20260508070558 | 7 | 64 | 0.0 | 0.0 | 0.00 | 0.41 | 0.00 | 68 | 1014.5 |
| 20260508065553 | 7 | 352 | 0.0 | 0.0 | 0.00 | 0.41 | 0.00 | 68 | 1014.4 |
| 20260508065053 | 7 | 8 | 0.0 | 0.0 | 0.00 | 0.41 | 0.00 | 67 | 1014.3 |
| 20260508064058 | 7 | 12 | 0.0 | 0.0 | 0.00 | 0.41 | 0.00 | 67 | 1014.2 |
| 20260508063556 | 7 | 358 | 0.0 | 0.0 | 0.00 | 0.41 | 0.00 | 66 | 1014.4 |
| 20260508063057 | 7 | 106 | 0.0 | 0.0 | 0.00 | 0.41 | 0.00 | 66 | 1014.3 |
| 20260508062554 | 7 | 342 | 0.0 | 0.0 | 0.00 | 0.41 | 0.00 | 66 | 1014.2 |
| 20260508062053 | 7 | 70 | 0.0 | 0.0 | 0.00 | 0.41 | 0.00 | 66 | 1014.3 |
| 20260508061553 | 7 | 341 | 0.0 | 1.6 | 0.00 | 0.41 | 0.00 | 66 | 1014.2 |
| 20260508061054 | 7 | 326 | 0.0 | 1.6 | 0.00 | 0.41 | 0.00 | 66 | 1014.1 |
| 20260508060550 | 7 | 333 | 0.0 | 1.6 | 0.00 | 0.41 | 0.00 | 66 | 1014.1 |
| 20260508060055 | 7 | 324 | 0.0 | 1.6 | 0.00 | 0.51 | 0.00 | 66 | 1014.3 |
| 20260508055552 | 7 | 354 | 0.0 | 1.6 | 0.00 | 0.51 | 0.00 | 66 | 1014.2 |
| 20260508055048 | 7 | 354 | 0.0 | 1.6 | 0.00 | 0.51 | 0.00 | 66 | 1014.3 |
| 20260508054040 | 7 | 12 | 0.0 | 1.6 | 0.00 | 0.51 | 0.00 | 65 | 1014.1 |
| 20260508053538 | 8 | 30 | 0.0 | 1.6 | 0.00 | 0.51 | 0.00 | 65 | 1014.1 |
| 20260508053038 | 8 | 30 | 0.0 | 1.6 | 0.00 | 0.51 | 0.00 | 66 | 1014.1 |
| 20260508052537 | 8 | 338 | 0.0 | 1.6 | 0.00 | 0.51 | 0.00 | 65 | 1014.1 |
| 20260508052038 | 8 | 338 | 0.0 | 1.6 | 0.00 | 0.51 | 0.00 | 66 | 1014.0 |
| 20260508051534 | 8 | 338 | 0.0 | 4.8 | 0.00 | 0.51 | 0.00 | 66 | 1014.1 |
| 20260508051034 | 8 | 333 | 0.0 | 4.8 | 0.00 | 0.51 | 0.00 | 66 | 1014.0 |
| 20260508050533 | 8 | 344 | 0.0 | 3.2 | 0.00 | 0.51 | 0.00 | 66 | 1013.9 |
| 20260508050032 | 8 | 340 | 0.0 | 1.6 | 0.00 | 0.71 | 0.00 | 67 | 1013.9 |
| 20260508045530 | 8 | 326 | 0.0 | 1.6 | 0.00 | 0.71 | 0.00 | 67 | 1013.9 |
| 20260508045029 | 8 | 335 | 0.0 | 1.6 | 0.00 | 0.71 | 0.00 | 67 | 1013.9 |
| 20260508044029 | 8 | 335 | 0.0 | 1.6 | 0.00 | 0.71 | 0.00 | 67 | 1013.6 |
| 20260508043528 | 9 | 300 | 0.0 | 3.2 | 0.00 | 0.71 | 0.00 | 67 | 1013.5 |
| 20260508043028 | 9 | 344 | 0.0 | 3.2 | 0.00 | 0.71 | 0.00 | 67 | 1013.7 |
| 20260508042527 | 9 | 323 | 0.0 | 3.2 | 0.00 | 0.71 | 0.00 | 66 | 1013.5 |
| 20260508042027 | 8 | 311 | 0.0 | 3.2 | 0.00 | 0.71 | 0.00 | 67 | 1013.5 |
| 20260508041525 | 9 | 338 | 0.0 | 1.6 | 0.00 | 0.71 | 0.00 | 67 | 1013.4 |
| 20260508041025 | 9 | 1 | 0.0 | 3.2 | 0.00 | 0.71 | 0.00 | 66 | 1013.4 |
| 20260508040524 | 9 | 36 | 0.0 | 3.2 | 0.00 | 0.71 | 0.00 | 66 | 1013.5 |
| 20260508040020 | 9 | 341 | 0.0 | 1.6 | 0.00 | 0.71 | 0.71 | 66 | 1013.5 |
| 20260508035521 | 9 | 324 | 0.0 | 1.6 | 0.00 | 0.71 | 0.71 | 66 | 1013.6 |
| 20260508035019 | 9 | 355 | 0.0 | 3.2 | 0.00 | 0.71 | 0.71 | 65 | 1013.5 |
| 20260508034018 | 10 | 328 | 0.0 | 3.2 | 0.00 | 0.71 | 0.71 | 65 | 1013.6 |
| 20260508033519 | 10 | 345 | 0.0 | 3.2 | 0.00 | 0.71 | 0.71 | 64 | 1013.5 |
| 20260508033015 | 10 | 4 | 0.0 | 3.2 | 0.00 | 0.71 | 0.71 | 64 | 1013.5 |
| 20260508032515 | 10 | 345 | 0.0 | 3.2 | 0.00 | 0.71 | 0.71 | 64 | 1013.5 |
| 20260508032014 | 10 | 125 | 0.0 | 3.2 | 0.00 | 0.71 | 0.71 | 64 | 1013.4 |
| 20260508031515 | 10 | 347 | 0.0 | 3.2 | 0.00 | 0.71 | 0.71 | 64 | 1013.6 |
| 20260508031012 | 10 | 331 | 0.0 | 6.4 | 0.00 | 0.71 | 0.71 | 64 | 1013.6 |
| 20260508030511 | 10 | 319 | 1.6 | 6.4 | 0.00 | 0.71 | 0.71 | 64 | 1013.5 |
| 20260508030009 | 10 | 109 | 0.0 | 3.2 | 0.00 | 0.71 | 0.71 | 63 | 1013.6 |
| 20260508025507 | 10 | 11 | 0.0 | 4.8 | 0.00 | 0.71 | 0.71 | 63 | 1013.4 |
| 20260508025007 | 10 | 39 | 0.0 | 4.8 | 0.00 | 0.71 | 0.71 | 62 | 1013.4 |
| 20260508024004 | 11 | 162 | 0.0 | 3.2 | 0.00 | 0.71 | 0.71 | 60 | 1013.1 |
| 20260508023501 | 11 | 1 | 0.0 | 3.2 | 0.00 | 0.71 | 0.71 | 60 | 1012.9 |
| 20260508023100 | 11 | 8 | 0.0 | 3.2 | 0.00 | 0.71 | 0.71 | 60 | 1012.9 |
| 20260508022557 | 11 | 345 | 1.6 | 3.2 | 0.00 | 0.71 | 0.71 | 58 | 1012.7 |
| 20260508022058 | 12 | 94 | 0.0 | 3.2 | 0.00 | 0.71 | 0.71 | 58 | 1012.7 |
| 20260508021556 | 12 | 240 | 0.0 | 3.2 | 0.00 | 0.71 | 0.71 | 57 | 1012.6 |
| 20260508021052 | 12 | 340 | 0.0 | 3.2 | 0.00 | 0.71 | 0.71 | 56 | 1012.6 |
| 20260508020551 | 12 | 337 | 0.0 | 3.2 | 0.00 | 0.71 | 0.71 | 53 | 1012.6 |
| 20260508020050 | 13 | 32 | 0.0 | 6.4 | 0.00 | 0.79 | 0.71 | 49 | 1012.6 |
| 20260508015550 | 13 | 317 | 0.0 | 8.0 | 0.00 | 0.79 | 0.71 | 46 | 1012.3 |
| 20260508015048 | 13 | 116 | 3.2 | 8.0 | 0.00 | 0.79 | 0.71 | 46 | 1012.2 |
| 20260508014648 | 13 | 94 | 1.6 | 4.8 | 0.00 | 0.79 | 0.71 | 49 | 1012.1 |
| 20260508014048 | 13 | 30 | 1.6 | 4.8 | 0.00 | 0.79 | 0.71 | 49 | 1012.2 |
| 20260508013545 | 13 | 129 | 0.0 | 4.8 | 0.00 | 0.79 | 0.71 | 48 | 1012.0 |
| 20260508013045 | 13 | 43 | 1.6 | 4.8 | 0.00 | 0.79 | 0.71 | 49 | 1012.0 |
| 20260508012546 | 13 | 110 | 0.0 | 3.2 | 0.00 | 0.79 | 0.71 | 50 | 1011.7 |
| 20260508012042 | 13 | 144 | 0.0 | 3.2 | 0.00 | 0.79 | 0.71 | 51 | 1011.7 |
| 20260508011544 | 14 | 114 | 0.0 | 6.4 | 0.00 | 0.79 | 0.71 | 50 | 1011.5 |
| 20260508011040 | 14 | 137 | 1.6 | 6.4 | 0.00 | 0.79 | 0.71 | 48 | 1011.5 |
| 20260508010539 | 14 | 40 | 0.0 | 4.8 | 0.00 | 0.79 | 0.71 | 49 | 1011.6 |
| 20260508010037 | 14 | 218 | 0.0 | 9.7 | 0.00 | 1.09 | 0.71 | 48 | 1011.4 |
| 20260508005541 | 15 | 102 | 0.0 | 14.5 | 0.00 | 1.09 | 0.71 | 45 | 1011.4 |
| 20260508005037 | 15 | 131 | 6.4 | 14.5 | 0.00 | 1.09 | 0.71 | 44 | 1011.4 |
| 20260508004635 | 15 | 136 | 3.2 | 19.3 | 0.00 | 1.09 | 0.71 | 45 | 1011.3 |
| 20260508004037 | 15 | 77 | 8.0 | 19.3 | 0.00 | 1.09 | 0.71 | 45 | 1011.3 |
| 20260508003536 | 15 | 29 | 0.0 | 16.1 | 0.00 | 1.09 | 0.71 | 47 | 1011.2 |
| 20260508003038 | 15 | 304 | 0.0 | 16.1 | 0.00 | 1.09 | 0.71 | 46 | 1011.1 |
| 20260508002534 | 15 | 57 | 0.0 | 6.4 | 0.00 | 1.09 | 0.71 | 46 | 1011.2 |
| 20260508002034 | 15 | 135 | 1.6 | 16.1 | 0.00 | 1.09 | 0.71 | 47 | 1011.0 |
| 20260508001535 | 15 | 125 | 4.8 | 16.1 | 0.00 | 1.09 | 0.71 | 46 | 1011.0 |
| 20260508001032 | 15 | 138 | 0.0 | 8.0 | 0.00 | 1.09 | 0.71 | 49 | 1011.1 |
| 20260508000533 | 15 | 146 | 1.6 | 8.0 | 0.00 | 1.09 | 0.71 | 47 | 1011.0 |
| 20260508000029 | 15 | 303 | 1.6 | 9.7 | 0.00 | 1.30 | 0.71 | 48 | 1010.9 |
| 20260507235528 | 15 | 250 | 3.2 | 9.7 | 0.00 | 1.30 | 0.71 | 48 | 1010.9 |
| 20260507235026 | 16 | 127 | 3.2 | 9.7 | 0.00 | 1.30 | 0.71 | 47 | 1011.0 |
| 20260507234626 | 16 | 309 | 0.0 | 8.0 | 0.00 | 1.30 | 0.71 | 47 | 1010.9 |
| 20260507234021 | 16 | 213 | 0.0 | 8.0 | 0.00 | 1.30 | 0.71 | 47 | 1010.9 |
| 20260507233525 | 16 | 108 | 1.6 | 14.5 | 0.00 | 1.30 | 0.71 | 47 | 1010.9 |
| 20260507233023 | 16 | 323 | 6.4 | 14.5 | 0.00 | 1.30 | 0.71 | 45 | 1010.6 |
| 20260507232520 | 17 | 141 | 3.2 | 12.9 | 0.00 | 1.30 | 0.71 | 46 | 1010.7 |
| 20260507232020 | 17 | 60 | 6.4 | 19.3 | 0.00 | 1.30 | 0.71 | 45 | 1010.6 |
| 20260507231531 | 16 | 186 | 6.4 | 19.3 | 0.00 | 1.30 | 0.71 | 47 | 1010.6 |
| 20260507231021 | 16 | 124 | 8.0 | 19.3 | 0.00 | 1.30 | 0.71 | 47 | 1010.6 |
| 20260507230517 | 16 | 120 | 8.0 | 30.6 | 0.00 | 1.30 | 0.71 | 48 | 1010.5 |
| 20260507230016 | 16 | 122 | 11.3 | 30.6 | 0.00 | 1.30 | 0.71 | 47 | 1010.5 |
| 20260507225517 | 16 | 86 | 4.8 | 17.7 | 0.00 | 1.30 | 0.71 | 47 | 1010.4 |
| 20260507225016 | 16 | 79 | 6.4 | 24.1 | 0.00 | 1.30 | 0.71 | 47 | 1010.4 |
| 20260507224616 | 17 | 94 | 4.8 | 19.3 | 0.00 | 1.30 | 0.71 | 47 | 1010.3 |
| 20260507224115 | 17 | 105 | 3.2 | 14.5 | 0.00 | 1.30 | 0.71 | 48 | 1010.3 |
| 20260507223516 | 17 | 65 | 6.4 | 19.3 | 0.00 | 1.30 | 0.71 | 48 | 1010.2 |
| 20260507223014 | 17 | 113 | 9.7 | 20.9 | 0.00 | 1.30 | 0.71 | 48 | 1010.0 |
| 20260507222512 | 17 | 94 | 9.7 | 27.4 | 0.00 | 1.30 | 0.71 | 49 | 1009.8 |
| 20260507222011 | 17 | 136 | 9.7 | 29.0 | 0.00 | 1.30 | 0.71 | 49 | 1009.7 |
| 20260507221514 | 16 | 97 | 9.7 | 37.0 | 0.00 | 1.30 | 0.71 | 50 | 1009.6 |
| 20260507221013 | 17 | 62 | 14.5 | 37.0 | 0.00 | 1.30 | 0.71 | 49 | 1009.3 |
| 20260507220508 | 17 | 49 | 12.9 | 30.6 | 0.00 | 1.30 | 0.71 | 49 | 1009.7 |
| 20260507220008 | 17 | 138 | 9.7 | 32.2 | 0.00 | 1.30 | 0.71 | 50 | 1009.2 |
| 20260507215508 | 17 | 146 | 12.9 | 33.8 | 0.00 | 1.30 | 0.71 | 50 | 1009.0 |
| 20260507215008 | 17 | 131 | 14.5 | 33.8 | 0.00 | 1.30 | 0.71 | 50 | 1009.0 |
| 20260507214605 | 18 | 45 | 11.3 | 25.7 | 0.00 | 1.30 | 0.71 | 48 | 1008.7 |
| 20260507214007 | 18 | 97 | 9.7 | 25.7 | 0.00 | 1.30 | 0.71 | 47 | 1008.7 |
| 20260507213507 | 19 | 53 | 11.3 | 25.7 | 0.00 | 1.30 | 0.71 | 45 | 1008.6 |
| 20260507213006 | 20 | 111 | 11.3 | 22.5 | 0.00 | 1.30 | 0.71 | 44 | 1008.3 |
| 20260507212506 | 21 | 60 | 6.4 | 17.7 | 0.00 | 1.30 | 0.71 | 44 | 1008.3 |
| 20260507212004 | 21 | 191 | 6.4 | 16.1 | 0.00 | 1.30 | 0.71 | 43 | 1008.3 |
| 20260507211510 | 21 | 37 | 4.8 | 16.1 | 0.00 | 1.30 | 0.71 | 43 | 1008.2 |
| 20260507211006 | 21 | 333 | 3.2 | 27.4 | 0.00 | 1.30 | 0.71 | 44 | 1008.0 |
| 20260507210508 | 20 | 96 | 4.8 | 27.4 | 0.00 | 1.30 | 0.71 | 45 | 1007.8 |